�ϑ��_��,����,�C��[��],�C�� �i�����,���x[%RH],���x �i�����,���n�C��[hPa],���n�C�� �i�����,�C�ʋC��[hPa],�C�ʋC�� �i�����,����[m/s],���� �i�����,����,���� �i�����,�ő�u�ԕ���[m/s],�ő�u�ԕ��� �i�����,�ő�u�ԕ���������,�ő�u�ԕ��������� �i�����,����[W/�u],���� �i�����,���J,���J �i�����,1���ԉJ��[mm/h],1���ԉJ�� �i�����,�ϐ��[cm],�ϐ�� �i�����,�~���[cm/h],�~��� �i�����,����[m],���� �i�����,���ʕω�,���ʕω� �i�����
�k�C���X�y�[�X�|�[�g(�����),2022/12/01 01:00:00,-1.5,0,41,0,1009.7,0,1012.7,0,1.4,0,���k��,0,5.8,0,�k��,0,0,0,�Ȃ�,0,0.0,0,,,,,,,,
�k�C���X�y�[�X�|�[�g(�����),2022/12/01 02:00:00,-1.3,0,57,0,1010.0,0,1013.0,0,2.4,0,�k��,0,4.2,0,�k�k��,0,0,0,�Ȃ�,0,0.0,0,,,,,,,,
�k�C���X�y�[�X�|�[�g(�����),2022/12/01 03:00:00,-2.2,0,62,0,1010.0,0,1013.1,0,1.9,0,��쐼,0,3.9,0,��,0,0,0,�Ȃ�,0,0.0,0,,,,,,,,
�k�C���X�y�[�X�|�[�g(�����),2022/12/01 04:00:00,-3.5,0,53,0,1010.6,0,1013.7,0,1.7,0,�k�k��,0,3.4,0,��,0,0,0,�Ȃ�,0,0.0,0,,,,,,,,
�k�C���X�y�[�X�|�[�g(�����),2022/12/01 05:00:00,-1.2,0,38,0,1010.9,0,1013.9,0,8.6,0,��,0,13.3,0,��,0,0,0,�Ȃ�,0,0.0,0,,,,,,,,
�k�C���X�y�[�X�|�[�g(�����),2022/12/01 06:00:00,-2.0,0,36,0,1012.1,0,1015.2,0,4.6,0,���k��,0,13.6,0,��,0,0,0,�Ȃ�,0,0.0,0,,,,,,,,
�k�C���X�y�[�X�|�[�g(�����),2022/12/01 07:00:00,-2.3,0,33,0,1013.1,0,1016.2,0,2.5,0,���k��,0,7.5,0,��,0,4,0,�Ȃ�,0,0.0,0,,,,,,,,
�k�C���X�y�[�X�|�[�g(�����),2022/12/01 08:00:00,-1.6,0,29,0,1013.5,0,1016.6,0,5.7,0,��,0,9.5,0,��,0,65,0,�Ȃ�,0,0.0,0,,,,,,,,
�k�C���X�y�[�X�|�[�g(�����),2022/12/01 09:00:00,-1.5,0,29,0,1013.5,0,1016.6,0,5.5,0,���k��,0,11.5,0,���쐼,0,136,0,�Ȃ�,0,0.0,0,,,,,,,,
�k�C���X�y�[�X�|�[�g(�����),2022/12/01 10:00:00,-0.5,0,28,0,1013.3,0,1016.3,0,9.2,0,���k��,0,14.0,0,���k��,0,201,0,�Ȃ�,0,0.5,0,,,,,,,,
�k�C���X�y�[�X�|�[�g(�����),2022/12/01 11:00:00,0.8,0,31,0,1012.5,0,1015.5,0,8.2,0,��,0,14.3,0,���k��,0,384,0,�Ȃ�,0,0.0,0,,,,,,,,
�k�C���X�y�[�X�|�[�g(�����),2022/12/01 12:00:00,1.0,0,31,0,1012.1,0,1015.1,0,6.6,0,��,0,17.4,0,��,0,427,0,�Ȃ�,0,0.5,0,,,,,,,,
�k�C���X�y�[�X�|�[�g(�����),2022/12/01 13:00:00,0.6,0,30,0,1012.3,0,1015.3,0,7.3,0,��,0,16.1,0,��,0,396,0,�Ȃ�,0,0.0,0,,,,,,,,
�k�C���X�y�[�X�|�[�g(�����),2022/12/01 14:00:00,0.3,0,31,0,1012.6,0,1015.6,0,8.5,0,��,0,16.3,0,���쐼,0,311,0,�Ȃ�,0,0.0,0,,,,,,,,
�k�C���X�y�[�X�|�[�g(�����),2022/12/01 15:00:00,-0.1,0,33,0,1013.0,0,1016.0,0,6.7,0,��,0,12.4,0,���k��,0,188,0,�Ȃ�,0,0.0,0,,,,,,,,
�k�C���X�y�[�X�|�[�g(�����),2022/12/01 16:00:00,-0.8,0,36,0,1013.3,0,1016.3,0,3.2,0,��,0,9.1,0,���k��,0,44,0,�Ȃ�,0,0.0,0,,,,,,,,
�k�C���X�y�[�X�|�[�g(�����),2022/12/01 17:00:00,-1.5,0,40,0,1013.4,0,1016.5,0,1.8,0,�쐼,0,5.0,0,��,0,0,0,�Ȃ�,0,0.0,0,,,,,,,,
�k�C���X�y�[�X�|�[�g(�����),2022/12/01 18:00:00,-1.1,0,41,0,1013.6,0,1016.7,0,1.9,0,���쐼,0,5.3,0,���쐼,0,0,0,�Ȃ�,0,0.0,0,,,,,,,,
�k�C���X�y�[�X�|�[�g(�����),2022/12/01 19:00:00,-0.9,0,39,0,1013.7,0,1016.8,0,1.9,0,�쐼,0,6.0,0,���쐼,0,0,0,�Ȃ�,0,0.0,0,,,,,,,,
�k�C���X�y�[�X�|�[�g(�����),2022/12/01 20:00:00,-1.9,0,43,0,1014.1,0,1017.2,0,1.2,0,��,0,3.1,0,��,0,0,0,�Ȃ�,0,0.0,0,,,,,,,,
�k�C���X�y�[�X�|�[�g(�����),2022/12/01 21:00:00,-4.0,0,51,0,1014.0,0,1017.1,0,0.6,0,���k��,0,4.4,0,���k��,0,0,0,�Ȃ�,0,0.0,0,,,,,,,,
�k�C���X�y�[�X�|�[�g(�����),2022/12/01 22:00:00,-5.3,0,50,0,1014.3,0,1017.4,0,1.5,0,���쐼,0,3.6,0,���k��,0,0,0,�Ȃ�,0,0.0,0,,,,,,,,
�k�C���X�y�[�X�|�[�g(�����),2022/12/01 23:00:00,-4.0,0,46,0,1014.3,0,1017.4,0,2.1,0,�k�k��,0,3.6,0,�k��,0,0,0,�Ȃ�,0,0.0,0,,,,,,,,
�k�C���X�y�[�X�|�[�g(�����),2022/12/02 00:00:00,-5.4,0,52,0,1014.1,0,1017.2,0,0.7,0,�k�k��,0,4.6,0,�k�k��,0,0,0,�Ȃ�,0,0.0,0,,,,,,,,
�k�C���X�y�[�X�|�[�g(�����),2022/12/02 01:00:00,-5.5,0,54,0,1014.2,0,1017.3,0,1.3,0,���k��,0,3.3,0,�k�k��,0,0,0,�Ȃ�,0,0.0,0,,,,,,,,
�k�C���X�y�[�X�|�[�g(�����),2022/12/02 02:00:00,-5.4,0,53,0,1014.5,0,1017.6,0,1.7,0,�k��,0,2.9,0,���k��,0,0,0,�Ȃ�,0,0.0,0,,,,,,,,
�k�C���X�y�[�X�|�[�g(�����),2022/12/02 03:00:00,-6.6,0,57,0,1014.7,0,1017.8,0,1.7,0,���쐼,0,2.4,0,���k��,0,0,0,�Ȃ�,0,0.0,0,,,,,,,,
�k�C���X�y�[�X�|�[�g(�����),2022/12/02 04:00:00,-6.7,0,58,0,1014.8,0,1017.9,0,1.1,0,�k��,0,3.1,0,��,0,0,0,�Ȃ�,0,0.0,0,,,,,,,,
�k�C���X�y�[�X�|�[�g(�����),2022/12/02 05:00:00,-6.4,0,61,0,1015.4,0,1018.5,0,1.8,0,���쐼,0,2.9,0,���k��,0,0,0,�Ȃ�,0,0.0,0,,,,,,,,
�k�C���X�y�[�X�|�[�g(�����),2022/12/02 06:00:00,-8.4,0,66,0,1015.8,0,1018.9,0,0.7,0,���k��,0,3.8,0,���k��,0,0,0,�Ȃ�,0,0.0,0,,,,,,,,
�k�C���X�y�[�X�|�[�g(�����),2022/12/02 07:00:00,-8.7,0,67,0,1016.4,0,1019.6,0,1.4,0,���k��,0,3.6,0,���쐼,0,4,0,�Ȃ�,0,0.0,0,,,,,,,,
�k�C���X�y�[�X�|�[�g(�����),2022/12/02 08:00:00,-5.6,0,63,0,1016.7,0,1019.8,0,1.8,0,��,0,3.7,0,�k��,0,63,0,�Ȃ�,0,0.0,0,,,,,,,,
�k�C���X�y�[�X�|�[�g(�����),2022/12/02 09:00:00,-2.0,0,47,0,1016.8,0,1019.9,0,1.9,0,��,0,3.1,0,���k��,0,180,0,�Ȃ�,0,0.0,0,,,,,,,,
�k�C���X�y�[�X�|�[�g(�����),2022/12/02 10:00:00,-0.3,0,29,0,1016.9,0,1020.0,0,3.2,0,���k��,0,5.4,0,��,0,303,0,�Ȃ�,0,0.0,0,,,,,,,,
�k�C���X�y�[�X�|�[�g(�����),2022/12/02 11:00:00,0.5,0,26,0,1016.3,0,1019.3,0,3.2,0,�k��,0,5.6,0,�k��,0,387,0,�Ȃ�,0,0.0,0,,,,,,,,
�k�C���X�y�[�X�|�[�g(�����),2022/12/02 12:00:00,0.5,0,30,0,1016.3,0,1019.3,0,2.9,0,�k�k��,0,7.8,0,�k�k��,0,415,0,�Ȃ�,0,0.0,0,,,,,,,,
�k�C���X�y�[�X�|�[�g(�����),2022/12/02 13:00:00,0.6,0,25,0,1016.7,0,1019.7,0,4.9,0,�k��,0,8.5,0,�k��,0,389,0,�Ȃ�,0,0.0,0,,,,,,,,
�k�C���X�y�[�X�|�[�g(�����),2022/12/02 14:00:00,0.5,0,28,0,1017.6,0,1020.6,0,5.1,0,�k�k��,0,9.5,0,�k�k��,0,297,0,�Ȃ�,0,0.0,0,,,,,,,,
�k�C���X�y�[�X�|�[�g(�����),2022/12/02 15:00:00,0.1,0,29,0,1018.5,0,1021.6,0,4.0,0,�k��,0,8.3,0,�k�k��,0,181,0,�Ȃ�,0,0.0,0,,,,,,,,
�k�C���X�y�[�X�|�[�g(�����),2022/12/02 16:00:00,-1.1,0,32,0,1019.5,0,1022.6,0,2.0,0,�k�k��,0,6.7,0,�k�k��,0,49,0,�Ȃ�,0,0.0,0,,,,,,,,
�k�C���X�y�[�X�|�[�g(�����),2022/12/02 17:00:00,-2.1,0,36,0,1020.6,0,1023.7,0,0.7,0,�쐼,0,3.2,0,�k�k��,0,0,0,�Ȃ�,0,0.0,0,,,,,,,,
�k�C���X�y�[�X�|�[�g(�����),2022/12/02 18:00:00,-3.0,0,37,0,1020.8,0,1023.9,0,0.7,0,�쐼,0,1.9,0,�쐼,0,0,0,�Ȃ�,0,0.0,0,,,,,,,,
�k�C���X�y�[�X�|�[�g(�����),2022/12/02 19:00:00,-4.4,0,44,0,1021.2,0,1024.3,0,1.4,0,���쐼,0,2.5,0,�쐼,0,0,0,�Ȃ�,0,0.0,0,,,,,,,,
�k�C���X�y�[�X�|�[�g(�����),2022/12/02 20:00:00,-6.6,0,53,0,1021.1,0,1024.2,0,1.0,0,���k��,0,1.8,0,���k��,0,0,0,�Ȃ�,0,0.0,0,,,,,,,,
�k�C���X�y�[�X�|�[�g(�����),2022/12/02 21:00:00,-6.9,0,59,0,1021.6,0,1024.7,0,0.9,0,��,0,2.6,0,���쐼,0,0,0,�Ȃ�,0,0.0,0,,,,,,,,
�k�C���X�y�[�X�|�[�g(�����),2022/12/02 22:00:00,-7.7,0,64,0,1021.6,0,1024.8,0,1.4,0,���쐼,0,2.2,0,���쐼,0,0,0,�Ȃ�,0,0.0,0,,,,,,,,
�k�C���X�y�[�X�|�[�g(�����),2022/12/02 23:00:00,-7.1,0,67,0,1021.8,0,1024.9,0,1.9,0,���쐼,0,3.5,0,���쐼,0,0,0,�Ȃ�,0,0.0,0,,,,,,,,
�k�C���X�y�[�X�|�[�g(�����),2022/12/03 00:00:00,-8.3,0,63,0,1021.6,0,1024.8,0,1.1,0,�k��,0,2.9,0,���쐼,0,0,0,�Ȃ�,0,0.0,0,,,,,,,,
�k�C���X�y�[�X�|�[�g(�����),2022/12/03 01:00:00,-8.8,0,70,0,1021.8,0,1025.0,0,1.7,0,���쐼,0,3.4,0,���쐼,0,0,0,�Ȃ�,0,0.0,0,,,,,,,,
�k�C���X�y�[�X�|�[�g(�����),2022/12/03 02:00:00,-8.7,0,68,0,1022.1,0,1025.3,0,0.9,0,���k��,0,4.1,0,���쐼,0,0,0,�Ȃ�,0,0.0,0,,,,,,,,
�k�C���X�y�[�X�|�[�g(�����),2022/12/03 03:00:00,-8.0,0,67,0,1021.8,0,1025.0,0,1.9,0,���쐼,0,3.7,0,���k��,0,0,0,�Ȃ�,0,0.0,0,,,,,,,,
�k�C���X�y�[�X�|�[�g(�����),2022/12/03 04:00:00,-8.9,0,66,0,1022.1,0,1025.3,0,2.2,0,��,0,4.3,0,���쐼,0,0,0,�Ȃ�,0,0.0,0,,,,,,,,
�k�C���X�y�[�X�|�[�g(�����),2022/12/03 05:00:00,-8.2,0,64,0,1022.1,0,1025.3,0,1.7,0,���쐼,0,3.9,0,��,0,0,0,�Ȃ�,0,0.0,0,,,,,,,,
�k�C���X�y�[�X�|�[�g(�����),2022/12/03 06:00:00,-8.2,0,69,0,1022.3,0,1025.5,0,1.7,0,���쐼,0,3.4,0,���k��,0,0,0,�Ȃ�,0,0.0,0,,,,,,,,
�k�C���X�y�[�X�|�[�g(�����),2022/12/03 07:00:00,-8.9,0,72,0,1021.7,0,1024.9,0,2.0,0,���쐼,0,3.9,0,�쐼,0,6,0,�Ȃ�,0,0.0,0,,,,,,,,
�k�C���X�y�[�X�|�[�g(�����),2022/12/03 08:00:00,-6.7,0,75,0,1021.6,0,1024.7,0,1.3,0,��,0,3.8,0,���쐼,0,38,0,�Ȃ�,0,0.0,0,,,,,,,,
�k�C���X�y�[�X�|�[�g(�����),2022/12/03 09:00:00,0.9,0,66,0,1021.5,0,1024.6,0,0.6,0,��,0,3.1,0,���쐼,0,167,0,�Ȃ�,0,0.0,0,,,,,,,,
�k�C���X�y�[�X�|�[�g(�����),2022/12/03 10:00:00,4.0,0,53,0,1020.2,0,1023.2,0,2.5,0,��,0,4.1,0,��쓌,0,291,0,�Ȃ�,0,0.0,0,,,,,,,,
�k�C���X�y�[�X�|�[�g(�����),2022/12/03 11:00:00,4.8,0,52,0,1018.9,0,1021.9,0,4.7,0,��,0,8.6,0,��쐼,0,367,0,�Ȃ�,0,0.0,0,,,,,,,,
�k�C���X�y�[�X�|�[�g(�����),2022/12/03 12:00:00,5.8,0,58,0,1017.2,0,1020.2,0,4.6,0,��,0,8.7,0,��쐼,0,411,0,�Ȃ�,0,0.0,0,,,,,,,,
�k�C���X�y�[�X�|�[�g(�����),2022/12/03 13:00:00,5.8,0,63,0,1015.5,0,1018.5,0,6.0,0,��,0,10.8,0,��,0,381,0,�Ȃ�,0,0.0,0,,,,,,,,
�k�C���X�y�[�X�|�[�g(�����),2022/12/03 14:00:00,5.1,0,72,0,1014.3,0,1017.3,0,5.6,0,��,0,10.4,0,��,0,171,0,����,0,0.0,0,,,,,,,,
�k�C���X�y�[�X�|�[�g(�����),2022/12/03 15:00:00,4.3,0,81,0,1013.7,0,1016.7,0,4.4,0,��쐼,0,10.4,0,�쐼,0,32,0,����,0,0.0,0,,,,,,,,
�k�C���X�y�[�X�|�[�g(�����),2022/12/03 16:00:00,2.3,0,91,0,1011.8,0,1014.8,0,2.4,0,�k��,0,8.7,0,�쐼,0,1,0,����,0,2.5,0,,,,,,,,
�k�C���X�y�[�X�|�[�g(�����),2022/12/03 17:00:00,1.4,0,94,0,1010.8,0,1013.8,0,1.4,0,�쐼,0,3.5,0,���k��,0,0,0,����,0,0.0,0,,,,,,,,
�k�C���X�y�[�X�|�[�g(�����),2022/12/03 18:00:00,1.5,0,96,0,1010.8,0,1013.8,0,4.0,0,���k��,0,5.3,0,���k��,0,0,0,�Ȃ�,0,0.5,0,,,,,,,,
�k�C���X�y�[�X�|�[�g(�����),2022/12/03 19:00:00,0.7,0,93,0,1010.7,0,1013.7,0,4.3,0,�k��,0,7.1,0,�k��,0,0,0,�Ȃ�,0,0.0,0,,,,,,,,
�k�C���X�y�[�X�|�[�g(�����),2022/12/03 20:00:00,0.5,0,93,0,1010.6,0,1013.6,0,2.5,0,�k��,0,6.7,0,���k��,0,0,0,�Ȃ�,0,0.0,0,,,,,,,,
�k�C���X�y�[�X�|�[�g(�����),2022/12/03 21:00:00,0.1,0,94,0,1009.5,0,1012.5,0,0.4,0,�쓌,0,3.6,0,�k��,0,0,0,�Ȃ�,0,0.0,0,,,,,,,,
�k�C���X�y�[�X�|�[�g(�����),2022/12/03 22:00:00,-0.1,0,96,0,1008.6,0,1011.6,0,0.8,0,���쐼,0,2.2,0,�k�k��,0,0,0,�Ȃ�,0,0.0,0,,,,,,,,
�k�C���X�y�[�X�|�[�g(�����),2022/12/03 23:00:00,-0.5,0,97,0,1007.7,0,1010.7,0,1.2,0,���k��,0,2.7,0,���k��,0,0,0,�Ȃ�,0,0.0,0,,,,,,,,
�k�C���X�y�[�X�|�[�g(�����),2022/12/04 00:00:00,-0.1,0,99,0,1007.4,0,1010.4,0,1.9,0,�k��,0,2.8,0,�k��,0,0,0,�Ȃ�,0,0.0,0,,,,,,,,
�k�C���X�y�[�X�|�[�g(�����),2022/12/04 01:00:00,0.9,0,99,0,1007.2,0,1010.2,0,2.7,0,���k��,0,4.3,0,���k��,0,0,0,�Ȃ�,0,0.0,0,,,,,,,,
�k�C���X�y�[�X�|�[�g(�����),2022/12/04 02:00:00,2.0,0,95,0,1007.2,0,1010.2,0,2.9,0,���쐼,0,4.8,0,�쐼,0,0,0,�Ȃ�,0,0.0,0,,,,,,,,
�k�C���X�y�[�X�|�[�g(�����),2022/12/04 03:00:00,4.0,0,70,0,1006.6,0,1009.6,0,2.8,0,�쐼,0,14.0,0,���쐼,0,0,0,�Ȃ�,0,0.5,0,,,,,,,,
�k�C���X�y�[�X�|�[�g(�����),2022/12/04 04:00:00,2.0,0,76,0,1007.1,0,1010.1,0,3.6,0,���k��,0,6.4,0,�k��,0,0,0,�Ȃ�,0,0.0,0,,,,,,,,
�k�C���X�y�[�X�|�[�g(�����),2022/12/04 05:00:00,0.5,0,85,0,1008.2,0,1011.2,0,1.1,0,���쐼,0,4.4,0,�k�k��,0,0,0,�Ȃ�,0,0.0,0,,,,,,,,
�k�C���X�y�[�X�|�[�g(�����),2022/12/04 06:00:00,1.1,0,75,0,1008.8,0,1011.8,0,2.5,0,���k��,0,6.8,0,�k��,0,0,0,�Ȃ�,0,0.0,0,,,,,,,,
�k�C���X�y�[�X�|�[�g(�����),2022/12/04 07:00:00,0.7,0,77,0,1009.6,0,1012.6,0,1.6,0,��,0,3.3,0,���k��,0,2,0,�Ȃ�,0,0.0,0,,,,,,,,
�k�C���X�y�[�X�|�[�g(�����),2022/12/04 08:00:00,0.1,0,79,0,1010.5,0,1013.5,0,0.8,0,�k�k��,0,2.6,0,���쐼,0,33,0,�Ȃ�,0,0.0,0,,,,,,,,
�k�C���X�y�[�X�|�[�g(�����),2022/12/04 09:00:00,3.0,0,47,0,1009.9,0,1012.9,0,5.5,0,��,0,12.3,0,��,0,108,0,�Ȃ�,0,0.0,0,,,,,,,,
�k�C���X�y�[�X�|�[�g(�����),2022/12/04 10:00:00,3.4,0,39,0,1009.5,0,1012.5,0,8.9,0,���쐼,0,16.3,0,���쐼,0,249,0,�Ȃ�,0,0.0,0,,,,,,,,
�k�C���X�y�[�X�|�[�g(�����),2022/12/04 11:00:00,3.7,0,39,0,1008.3,0,1011.3,0,7.5,0,���쐼,0,13.7,0,��,0,377,0,�Ȃ�,0,0.0,0,,,,,,,,
�k�C���X�y�[�X�|�[�g(�����),2022/12/04 12:00:00,3.4,0,37,0,1007.5,0,1010.5,0,8.7,0,��,0,18.4,0,��,0,415,0,�Ȃ�,0,0.0,0,,,,,,,,
�k�C���X�y�[�X�|�[�g(�����),2022/12/04 13:00:00,2.7,0,37,0,1008.0,0,1011.0,0,7.9,0,��,0,14.9,0,���k��,0,389,0,�Ȃ�,0,0.0,0,,,,,,,,
�k�C���X�y�[�X�|�[�g(�����),2022/12/04 14:00:00,1.8,0,32,0,1008.7,0,1011.7,0,8.6,0,��,0,13.7,0,��,0,303,0,�Ȃ�,0,0.0,0,,,,,,,,
�k�C���X�y�[�X�|�[�g(�����),2022/12/04 15:00:00,0.9,0,44,0,1009.6,0,1012.6,0,2.7,0,��,0,12.2,0,��,0,182,0,�Ȃ�,0,0.0,0,,,,,,,,
�k�C���X�y�[�X�|�[�g(�����),2022/12/04 16:00:00,-0.8,0,50,0,1010.7,0,1013.7,0,4.1,0,�k��,0,6.0,0,�k��,0,38,0,�Ȃ�,0,0.0,0,,,,,,,,
�k�C���X�y�[�X�|�[�g(�����),2022/12/04 17:00:00,-2.3,0,60,0,1011.8,0,1014.9,0,4.7,0,�k��,0,7.5,0,�k��,0,0,0,�Ȃ�,0,0.0,0,,,,,,,,
�k�C���X�y�[�X�|�[�g(�����),2022/12/04 18:00:00,-2.8,0,57,0,1012.8,0,1015.9,0,3.3,0,�k��,0,8.0,0,�k�k��,0,0,0,�Ȃ�,0,0.0,0,,,,,,,,
�k�C���X�y�[�X�|�[�g(�����),2022/12/04 19:00:00,-3.3,0,54,0,1013.3,0,1016.4,0,2.8,0,��,0,5.8,0,�k��,0,0,0,�Ȃ�,0,0.0,0,,,,,,,,
�k�C���X�y�[�X�|�[�g(�����),2022/12/04 20:00:00,-3.3,0,38,0,1013.2,0,1016.3,0,4.6,0,�k��,0,7.8,0,�k��,0,0,0,�Ȃ�,0,0.0,0,,,,,,,,
�k�C���X�y�[�X�|�[�g(�����),2022/12/04 21:00:00,-4.4,0,41,0,1013.3,0,1016.4,0,1.5,0,���k��,0,7.4,0,���k��,0,0,0,�Ȃ�,0,0.0,0,,,,,,,,
�k�C���X�y�[�X�|�[�g(�����),2022/12/04 22:00:00,-5.3,0,46,0,1013.3,0,1016.4,0,1.6,0,�k�k��,0,6.1,0,�k�k��,0,0,0,�Ȃ�,0,0.0,0,,,,,,,,
�k�C���X�y�[�X�|�[�g(�����),2022/12/04 23:00:00,-6.3,0,65,0,1013.7,0,1016.8,0,0.4,0,�k,0,3.4,0,�k�k��,0,0,0,�Ȃ�,0,0.0,0,,,,,,,,
�k�C���X�y�[�X�|�[�g(�����),2022/12/05 00:00:00,-7.2,0,67,0,1014.0,0,1017.1,0,1.0,0,�k��,0,3.4,0,�k�k��,0,0,0,�Ȃ�,0,0.0,0,,,,,,,,
�k�C���X�y�[�X�|�[�g(�����),2022/12/05 01:00:00,-8.1,0,70,0,1014.2,0,1017.3,0,2.4,0,���쐼,0,3.0,0,���쐼,0,0,0,�Ȃ�,0,0.0,0,,,,,,,,
�k�C���X�y�[�X�|�[�g(�����),2022/12/05 02:00:00,-8.5,0,72,0,1014.8,0,1017.9,0,1.3,0,���k��,0,2.5,0,���k��,0,0,0,�Ȃ�,0,0.0,0,,,,,,,,
�k�C���X�y�[�X�|�[�g(�����),2022/12/05 03:00:00,-9.2,0,74,0,1014.8,0,1018.0,0,1.7,0,��,0,3.3,0,�쐼,0,0,0,�Ȃ�,0,0.0,0,,,,,,,,
�k�C���X�y�[�X�|�[�g(�����),2022/12/05 04:00:00,-10.4,0,78,0,1014.4,0,1017.6,0,1.9,0,���쐼,0,3.0,0,���쐼,0,0,0,�Ȃ�,0,0.0,0,,,,,,,,
�k�C���X�y�[�X�|�[�g(�����),2022/12/05 05:00:00,-10.1,0,76,0,1014.4,0,1017.6,0,1.1,0,�k��,0,3.9,0,�쐼,0,0,0,�Ȃ�,0,0.0,0,,,,,,,,
�k�C���X�y�[�X�|�[�g(�����),2022/12/05 06:00:00,-8.8,0,68,0,1014.6,0,1017.7,0,3.1,0,���쐼,0,3.6,0,��,0,0,0,�Ȃ�,0,0.0,0,,,,,,,,
�k�C���X�y�[�X�|�[�g(�����),2022/12/05 07:00:00,-9.8,0,68,0,1014.5,0,1017.7,0,0.9,0,���쐼,0,3.6,0,�k��,0,3,0,�Ȃ�,0,0.0,0,,,,,,,,
�k�C���X�y�[�X�|�[�g(�����),2022/12/05 08:00:00,-7.4,0,72,0,1015.0,0,1018.1,0,0.7,0,���k��,0,3.7,0,�쐼,0,67,0,�Ȃ�,0,0.0,0,,,,,,,,
�k�C���X�y�[�X�|�[�g(�����),2022/12/05 09:00:00,-1.3,0,51,0,1015.0,0,1018.1,0,0.5,0,���쓌,0,2.8,0,��,0,180,0,�Ȃ�,0,0.0,0,,,,,,,,
�k�C���X�y�[�X�|�[�g(�����),2022/12/05 10:00:00,-0.4,0,35,0,1014.5,0,1017.5,0,2.1,0,�k�k��,0,4.2,0,�k�k��,0,295,0,�Ȃ�,0,0.0,0,,,,,,,,
�k�C���X�y�[�X�|�[�g(�����),2022/12/05 11:00:00,0.0,0,31,0,1013.5,0,1016.5,0,2.0,0,�k��,0,4.8,0,�k�k��,0,380,0,�Ȃ�,0,0.0,0,,,,,,,,
�k�C���X�y�[�X�|�[�g(�����),2022/12/05 12:00:00,0.5,0,30,0,1013.0,0,1016.0,0,2.2,0,�k�k��,0,6.1,0,�k�k��,0,412,0,�Ȃ�,0,0.0,0,,,,,,,,
�k�C���X�y�[�X�|�[�g(�����),2022/12/05 13:00:00,1.0,0,29,0,1012.9,0,1015.9,0,1.6,0,�k��,0,5.5,0,�k��,0,385,0,�Ȃ�,0,0.0,0,,,,,,,,
�k�C���X�y�[�X�|�[�g(�����),2022/12/05 14:00:00,0.3,0,31,0,1012.9,0,1015.9,0,2.7,0,���k��,0,5.8,0,�k��,0,302,0,�Ȃ�,0,0.0,0,,,,,,,,
�k�C���X�y�[�X�|�[�g(�����),2022/12/05 15:00:00,0.0,0,33,0,1013.3,0,1016.3,0,3.2,0,��,0,7.4,0,���쐼,0,182,0,�Ȃ�,0,0.0,0,,,,,,,,
�k�C���X�y�[�X�|�[�g(�����),2022/12/05 16:00:00,-0.9,0,38,0,1013.8,0,1016.9,0,2.1,0,��,0,6.1,0,��,0,46,0,�Ȃ�,0,0.0,0,,,,,,,,
�k�C���X�y�[�X�|�[�g(�����),2022/12/05 17:00:00,-1.5,0,39,0,1014.7,0,1017.8,0,3.2,0,�k��,0,4.6,0,�k��,0,0,0,�Ȃ�,0,0.0,0,,,,,,,,
�k�C���X�y�[�X�|�[�g(�����),2022/12/05 18:00:00,-3.2,0,44,0,1015.1,0,1018.2,0,1.4,0,���쐼,0,3.3,0,�k��,0,0,0,�Ȃ�,0,0.0,0,,,,,,,,
�k�C���X�y�[�X�|�[�g(�����),2022/12/05 19:00:00,-2.7,0,44,0,1015.5,0,1018.6,0,1.6,0,�쐼,0,2.2,0,�쐼,0,0,0,�Ȃ�,0,0.0,0,,,,,,,,
�k�C���X�y�[�X�|�[�g(�����),2022/12/05 20:00:00,-3.4,0,50,0,1015.6,0,1018.7,0,2.5,0,��,0,3.3,0,��,0,0,0,�Ȃ�,0,0.0,0,,,,,,,,
�k�C���X�y�[�X�|�[�g(�����),2022/12/05 21:00:00,-7.3,0,65,0,1015.5,0,1018.6,0,3.2,0,���쐼,0,4.5,0,��,0,0,0,�Ȃ�,0,0.0,0,,,,,,,,
�k�C���X�y�[�X�|�[�g(�����),2022/12/05 22:00:00,-4.7,0,56,0,1015.5,0,1018.6,0,3.3,0,��,0,4.0,0,���쐼,0,0,0,�Ȃ�,0,0.0,0,,,,,,,,
�k�C���X�y�[�X�|�[�g(�����),2022/12/05 23:00:00,-3.7,0,53,0,1015.5,0,1018.6,0,4.1,0,��,0,5.4,0,��,0,0,0,�Ȃ�,0,0.0,0,,,,,,,,
�k�C���X�y�[�X�|�[�g(�����),2022/12/06 00:00:00,-4.1,0,50,0,1015.3,0,1018.4,0,3.6,0,���k��,0,6.1,0,���k��,0,0,0,�Ȃ�,0,0.0,0,,,,,,,,
�k�C���X�y�[�X�|�[�g(�����),2022/12/06 01:00:00,-5.5,0,52,0,1015.2,0,1018.3,0,2.3,0,���k��,0,4.9,0,��,0,0,0,�Ȃ�,0,0.0,0,,,,,,,,
�k�C���X�y�[�X�|�[�g(�����),2022/12/06 02:00:00,-8.4,0,66,0,1015.4,0,1018.5,0,1.7,0,���쐼,0,3.2,0,���k��,0,0,0,�Ȃ�,0,0.0,0,,,,,,,,
�k�C���X�y�[�X�|�[�g(�����),2022/12/06 03:00:00,-9.7,0,70,0,1015.4,0,1018.6,0,0.7,0,��,0,4.5,0,���쐼,0,0,0,�Ȃ�,0,0.0,0,,,,,,,,
�k�C���X�y�[�X�|�[�g(�����),2022/12/06 04:00:00,-8.9,0,68,0,1015.0,0,1018.2,0,1.9,0,��,0,5.5,0,���쐼,0,0,0,�Ȃ�,0,0.0,0,,,,,,,,
�k�C���X�y�[�X�|�[�g(�����),2022/12/06 05:00:00,-10.1,0,71,0,1014.3,0,1017.5,0,2.3,0,���쐼,0,4.1,0,�쐼,0,0,0,�Ȃ�,0,0.0,0,,,,,,,,
�k�C���X�y�[�X�|�[�g(�����),2022/12/06 06:00:00,-9.6,0,72,0,1014.5,0,1017.7,0,2.4,0,���쐼,0,3.0,0,���쐼,0,0,0,�Ȃ�,0,0.0,0,,,,,,,,
�k�C���X�y�[�X�|�[�g(�����),2022/12/06 07:00:00,-10.1,0,73,0,1014.7,0,1017.9,0,1.5,0,���쐼,0,2.5,0,���쐼,0,4,0,�Ȃ�,0,0.0,0,,,,,,,,
�k�C���X�y�[�X�|�[�g(�����),2022/12/06 08:00:00,-7.1,0,75,0,1014.8,0,1017.9,0,2.0,0,���쐼,0,3.4,0,���쐼,0,64,0,�Ȃ�,0,0.0,0,,,,,,,,
�k�C���X�y�[�X�|�[�g(�����),2022/12/06 09:00:00,-2.0,0,60,0,1014.1,0,1017.2,0,1.4,0,�k�k��,0,2.3,0,�k�k��,0,172,0,�Ȃ�,0,0.0,0,,,,,,,,
�k�C���X�y�[�X�|�[�g(�����),2022/12/06 10:00:00,0.9,0,53,0,1013.0,0,1016.0,0,1.1,0,���k��,0,3.6,0,�k�k��,0,290,0,�Ȃ�,0,0.0,0,,,,,,,,
�k�C���X�y�[�X�|�[�g(�����),2022/12/06 11:00:00,1.3,0,51,0,1011.9,0,1014.9,0,2.8,0,��,0,4.9,0,��,0,376,0,�Ȃ�,0,0.0,0,,,,,,,,
�k�C���X�y�[�X�|�[�g(�����),2022/12/06 12:00:00,1.7,0,53,0,1011.8,0,1014.8,0,2.3,0,��쓌,0,4.1,0,�쓌,0,325,0,�Ȃ�,0,0.0,0,,,,,,,,
�k�C���X�y�[�X�|�[�g(�����),2022/12/06 13:00:00,2.4,0,51,0,1010.4,0,1013.4,0,2.5,0,��,0,4.1,0,��,0,348,0,�Ȃ�,0,0.0,0,,,,,,,,
�k�C���X�y�[�X�|�[�g(�����),2022/12/06 14:00:00,2.7,0,52,0,1009.6,0,1012.6,0,2.8,0,��,0,4.4,0,��,0,273,0,�Ȃ�,0,0.0,0,,,,,,,,
�k�C���X�y�[�X�|�[�g(�����),2022/12/06 15:00:00,2.8,0,47,0,1009.5,0,1012.5,0,1.0,0,��쐼,0,4.2,0,���쓌,0,149,0,�Ȃ�,0,0.0,0,,,,,,,,
�k�C���X�y�[�X�|�[�g(�����),2022/12/06 16:00:00,1.6,0,52,0,1009.4,0,1012.4,0,0.6,0,��,0,1.3,0,���쐼,0,15,0,�Ȃ�,0,0.0,0,,,,,,,,
�k�C���X�y�[�X�|�[�g(�����),2022/12/06 17:00:00,1.0,0,58,0,1009.5,0,1012.5,0,1.8,0,�k��,0,3.6,0,�쐼,0,0,0,�Ȃ�,0,0.0,0,,,,,,,,
�k�C���X�y�[�X�|�[�g(�����),2022/12/06 18:00:00,1.1,0,61,0,1009.5,0,1012.5,0,1.0,0,�k�k��,0,2.5,0,�k�k��,0,0,0,�Ȃ�,0,0.0,0,,,,,,,,
�k�C���X�y�[�X�|�[�g(�����),2022/12/06 19:00:00,0.5,0,67,0,1009.2,0,1012.2,0,2.0,0,�쐼,0,2.8,0,�쐼,0,0,0,�Ȃ�,0,0.0,0,,,,,,,,
�k�C���X�y�[�X�|�[�g(�����),2022/12/06 20:00:00,1.2,0,73,0,1009.2,0,1012.2,0,1.3,0,�쐼,0,2.0,0,�쐼,0,0,0,�Ȃ�,0,0.0,0,,,,,,,,
�k�C���X�y�[�X�|�[�g(�����),2022/12/06 21:00:00,-1.1,0,73,0,1008.8,0,1011.8,0,1.8,0,���쐼,0,2.7,0,���k��,0,0,0,�Ȃ�,0,0.0,0,,,,,,,,
�k�C���X�y�[�X�|�[�g(�����),2022/12/06 22:00:00,-2.6,0,79,0,1008.4,0,1011.5,0,1.4,0,���쐼,0,3.0,0,���쐼,0,0,0,�Ȃ�,0,0.0,0,,,,,,,,
�k�C���X�y�[�X�|�[�g(�����),2022/12/06 23:00:00,-2.5,0,83,0,1007.9,0,1011.0,0,1.5,0,�k��,0,3.3,0,���쐼,0,0,0,�Ȃ�,0,0.0,0,,,,,,,,
�k�C���X�y�[�X�|�[�g(�����),2022/12/07 00:00:00,-2.7,0,80,0,1007.4,0,1010.5,0,2.2,0,���k��,0,3.2,0,���k��,0,0,0,�Ȃ�,0,0.0,0,,,,,,,,
�k�C���X�y�[�X�|�[�g(�����),2022/12/07 01:00:00,-2.0,0,69,0,1007.0,0,1010.0,0,2.7,0,���k��,0,4.2,0,���k��,0,0,0,�Ȃ�,0,0.0,0,,,,,,,,
�k�C���X�y�[�X�|�[�g(�����),2022/12/07 02:00:00,-1.5,0,61,0,1007.1,0,1010.1,0,2.9,0,���k��,0,4.8,0,�k��,0,0,0,�Ȃ�,0,0.0,0,,,,,,,,
�k�C���X�y�[�X�|�[�g(�����),2022/12/07 03:00:00,-1.4,0,57,0,1006.6,0,1009.6,0,3.2,0,���k��,0,4.2,0,���k��,0,0,0,�Ȃ�,0,0.0,0,,,,,,,,
�k�C���X�y�[�X�|�[�g(�����),2022/12/07 04:00:00,-1.5,0,58,0,1006.4,0,1009.4,0,1.9,0,���k��,0,3.8,0,�k��,0,0,0,�Ȃ�,0,0.0,0,,,,,,,,
�k�C���X�y�[�X�|�[�g(�����),2022/12/07 05:00:00,-2.2,0,62,0,1006.9,0,1009.9,0,1.1,0,��,0,4.8,0,���k��,0,0,0,�Ȃ�,0,0.0,0,,,,,,,,
�k�C���X�y�[�X�|�[�g(�����),2022/12/07 06:00:00,-3.1,0,65,0,1007.1,0,1010.2,0,1.3,0,���쐼,0,2.4,0,���쐼,0,0,0,�Ȃ�,0,0.0,0,,,,,,,,
�k�C���X�y�[�X�|�[�g(�����),2022/12/07 07:00:00,-4.1,0,74,0,1007.8,0,1010.9,0,2.2,0,���쐼,0,2.8,0,��,0,3,0,�Ȃ�,0,0.0,0,,,,,,,,
�k�C���X�y�[�X�|�[�g(�����),2022/12/07 08:00:00,-1.9,0,71,0,1007.8,0,1010.8,0,1.8,0,�k��,0,5.8,0,���k��,0,59,0,�Ȃ�,0,0.0,0,,,,,,,,
�k�C���X�y�[�X�|�[�g(�����),2022/12/07 09:00:00,2.4,0,62,0,1007.9,0,1010.9,0,0.7,0,��,0,3.3,0,�k��,0,156,0,�Ȃ�,0,0.0,0,,,,,,,,
�k�C���X�y�[�X�|�[�g(�����),2022/12/07 10:00:00,2.7,0,58,0,1008.0,0,1011.0,0,2.5,0,�k�k��,0,4.0,0,�k�k��,0,264,0,�Ȃ�,0,0.0,0,,,,,,,,
�k�C���X�y�[�X�|�[�g(�����),2022/12/07 11:00:00,5.4,0,45,0,1007.5,0,1010.5,0,0.9,0,�k��,0,4.8,0,�k�k��,0,368,0,�Ȃ�,0,0.0,0,,,,,,,,
�k�C���X�y�[�X�|�[�g(�����),2022/12/07 12:00:00,5.6,0,36,0,1007.0,0,1010.0,0,3.6,0,���쐼,0,8.9,0,��,0,400,0,�Ȃ�,0,0.0,0,,,,,,,,
�k�C���X�y�[�X�|�[�g(�����),2022/12/07 13:00:00,6.0,0,34,0,1006.8,0,1009.8,0,4.7,0,��,0,9.6,0,��,0,406,0,�Ȃ�,0,0.0,0,,,,,,,,
�k�C���X�y�[�X�|�[�g(�����),2022/12/07 14:00:00,5.4,0,36,0,1006.8,0,1009.8,0,3.7,0,��,0,9.4,0,��,0,295,0,�Ȃ�,0,0.0,0,,,,,,,,
�k�C���X�y�[�X�|�[�g(�����),2022/12/07 15:00:00,4.3,0,45,0,1006.9,0,1009.9,0,3.6,0,�쐼,0,5.5,0,�쐼,0,109,0,�Ȃ�,0,0.0,0,,,,,,,,
�k�C���X�y�[�X�|�[�g(�����),2022/12/07 16:00:00,3.3,0,53,0,1007.3,0,1010.3,0,3.7,0,�쐼,0,7.1,0,�쐼,0,19,0,�Ȃ�,0,0.0,0,,,,,,,,
�k�C���X�y�[�X�|�[�g(�����),2022/12/07 17:00:00,2.7,0,60,0,1008.1,0,1011.1,0,3.9,0,�쐼,0,5.8,0,�쐼,0,0,0,�Ȃ�,0,0.0,0,,,,,,,,
�k�C���X�y�[�X�|�[�g(�����),2022/12/07 18:00:00,1.2,0,68,0,1008.3,0,1011.3,0,0.9,0,�k��,0,5.9,0,�쐼,0,0,0,�Ȃ�,0,0.0,0,,,,,,,,
�k�C���X�y�[�X�|�[�g(�����),2022/12/07 19:00:00,1.0,0,73,0,1008.9,0,1011.9,0,2.1,0,���쐼,0,3.5,0,�쐼,0,0,0,�Ȃ�,0,0.0,0,,,,,,,,
�k�C���X�y�[�X�|�[�g(�����),2022/12/07 20:00:00,1.3,0,67,0,1009.2,0,1012.2,0,2.9,0,��,0,4.8,0,���k��,0,0,0,�Ȃ�,0,0.0,0,,,,,,,,
�k�C���X�y�[�X�|�[�g(�����),2022/12/07 21:00:00,0.3,0,61,0,1009.8,0,1012.8,0,1.8,0,��,0,3.7,0,��,0,0,0,�Ȃ�,0,0.0,0,,,,,,,,
�k�C���X�y�[�X�|�[�g(�����),2022/12/07 22:00:00,-1.3,0,73,0,1009.6,0,1012.6,0,1.2,0,�k�k��,0,4.2,0,�k�k��,0,0,0,�Ȃ�,0,0.0,0,,,,,,,,
�k�C���X�y�[�X�|�[�g(�����),2022/12/07 23:00:00,-2.2,0,78,0,1009.5,0,1012.6,0,2.1,0,���쐼,0,2.6,0,���쐼,0,0,0,�Ȃ�,0,0.0,0,,,,,,,,
�k�C���X�y�[�X�|�[�g(�����),2022/12/08 00:00:00,-2.9,0,80,0,1009.8,0,1012.9,0,1.5,0,�k��,0,2.3,0,���쐼,0,0,0,�Ȃ�,0,0.0,0,,,,,,,,
�k�C���X�y�[�X�|�[�g(�����),2022/12/08 01:00:00,-1.9,0,79,0,1009.7,0,1012.8,0,1.5,0,�k��,0,3.1,0,���쐼,0,0,0,�Ȃ�,0,0.0,0,,,,,,,,
�k�C���X�y�[�X�|�[�g(�����),2022/12/08 02:00:00,-2.0,0,81,0,1009.8,0,1012.9,0,0.8,0,���쐼,0,3.2,0,�쐼,0,0,0,�Ȃ�,0,0.0,0,,,,,,,,
�k�C���X�y�[�X�|�[�g(�����),2022/12/08 03:00:00,-2.7,0,80,0,1009.4,0,1012.5,0,1.9,0,���쐼,0,3.0,0,���쐼,0,0,0,�Ȃ�,0,0.0,0,,,,,,,,
�k�C���X�y�[�X�|�[�g(�����),2022/12/08 04:00:00,-3.5,0,83,0,1009.0,0,1012.1,0,1.6,0,�k�k��,0,3.3,0,���쐼,0,0,0,�Ȃ�,0,0.0,0,,,,,,,,
�k�C���X�y�[�X�|�[�g(�����),2022/12/08 05:00:00,-3.2,0,80,0,1008.8,0,1011.9,0,1.6,0,��,0,2.7,0,�k�k��,0,0,0,�Ȃ�,0,0.0,0,,,,,,,,
�k�C���X�y�[�X�|�[�g(�����),2022/12/08 06:00:00,-4.5,0,84,0,1009.0,0,1012.1,0,2.3,0,���쐼,0,2.7,0,���쐼,0,0,0,�Ȃ�,0,0.0,0,,,,,,,,
�k�C���X�y�[�X�|�[�g(�����),2022/12/08 07:00:00,-3.0,0,77,0,1009.1,0,1012.2,0,2.0,0,���k��,0,2.8,0,���k��,0,4,0,�Ȃ�,0,0.0,0,,,,,,,,
�k�C���X�y�[�X�|�[�g(�����),2022/12/08 08:00:00,-1.6,0,72,0,1009.2,0,1012.2,0,0.8,0,���k��,0,3.0,0,���k��,0,56,0,�Ȃ�,0,0.0,0,,,,,,,,
�k�C���X�y�[�X�|�[�g(�����),2022/12/08 09:00:00,0.2,0,65,0,1009.4,0,1012.4,0,1.5,0,�쐼,0,2.4,0,��,0,162,0,�Ȃ�,0,0.0,0,,,,,,,,
�k�C���X�y�[�X�|�[�g(�����),2022/12/08 10:00:00,2.6,0,54,0,1009.0,0,1012.0,0,1.7,0,���쓌,0,2.8,0,��,0,279,0,�Ȃ�,0,0.0,0,,,,,,,,
�k�C���X�y�[�X�|�[�g(�����),2022/12/08 11:00:00,3.3,0,47,0,1008.7,0,1011.7,0,1.7,0,�k�k��,0,3.2,0,�k�k��,0,364,0,�Ȃ�,0,0.0,0,,,,,,,,
�k�C���X�y�[�X�|�[�g(�����),2022/12/08 12:00:00,3.5,0,43,0,1008.5,0,1011.5,0,4.2,0,�k��,0,7.2,0,�k�k��,0,399,0,�Ȃ�,0,0.0,0,,,,,,,,
�k�C���X�y�[�X�|�[�g(�����),2022/12/08 13:00:00,4.2,0,41,0,1008.2,0,1011.2,0,3.1,0,�k��,0,7.9,0,�k�k��,0,371,0,�Ȃ�,0,0.0,0,,,,,,,,
�k�C���X�y�[�X�|�[�g(�����),2022/12/08 14:00:00,2.7,0,45,0,1008.9,0,1011.9,0,3.6,0,�k��,0,7.4,0,���k��,0,215,0,�Ȃ�,0,0.0,0,,,,,,,,